Miscellaneous Local Product
Issued by NWS North Platte, NE

Home | Current Version | Previous Version | Graphics & Text | Print | Product List | Glossary On
Versions: 1 2 3 4 5 6 7 8 9 10 11 12 13 14 15 16 17 18 19 20 21 22 23 24 25 26 27 28 29 30 31 32 33 34 35 36 37 38 39 40 41 42 43 44 45 46 47 48 49 50
000
AXUS43 KLBF 301110
MISLBF


WESTERN AND NORTH CENTRAL NEBRASKA HOURLY WEATHER ROUNDUP
NATIONAL WEATHER SERVICE NORTH PLATTE NE
600 AM CDT MON MAR 30 2015

***STATIONS NOT REPORTING VARIABLES SUCH AS SKY/WEATHER OR
PRESSURE ARE PROVIDED BY THE NEBRASKA DEPARTMENT OF
ROADS...RAWS...AND APRS NETWORKS...AND ARE NOT UNDER
NATIONAL WEATHER SERVICE QUALITY CONTROL***

...OBSERVATIONS IN AND NEAR THE EASTERN PANHANDLE OF NEBRASKA...

CITY           SKY/WX    TMP DP  RH WIND       PRES   REMARKS
PINE RIDGE     CLEAR     35  23  61 W5        30.01S WCI  31
CHADRON        CLEAR     31  24  75 SW8       30.02R WCI  23
ALLIANCE       CLEAR     28  20  71 CALM      30.03S
SIDNEY         CLEAR     35  23  61 W10       30.06R WCI  27
$$

...OBSERVATIONS IN NORTH CENTRAL NEBRASKA...

CITY           SKY/WX    TMP DP  RH WIND       PRES   REMARKS
VALENTINE      CLEAR     41  21  44 CALM      30.00S
THEDFORD       CLEAR     41  20  43 CALM      30.05S
AINSWORTH      CLEAR     45  18  34 SW15      30.01S
O`NEILL        CLEAR     37  22  53 SW9       30.03F WCI  31
ORD            CLEAR     32  18  56 CALM      30.06F
BROKEN BOW     CLEAR     41  15  35 S8        30.06F
$$

...OBSERVATIONS IN SOUTHWEST NEBRASKA AND FAR NORTHEAST COLORADO...

CITY           SKY/WX    TMP DP  RH WIND       PRES   REMARKS
WRAY           FAIR      46  26  44 SW15      30.08F
IMPERIAL         N/A     38  21  50 SW8       30.08F WCI  32
OGALLALA       CLEAR     33  22  63 CALM      30.06F
NORTH PLATTE   CLEAR     40  19  43 SW3       30.07F
MCCOOK         CLEAR     41  16  36 SW7       30.09F
LEXINGTON      CLEAR     43  15  32 SW9       30.09S
$$

...NORTH PLATTE AREA...

CITY           SKY/WX    TMP DP  RH WIND       PRES   REMARKS
AIRPORT        CLEAR     40  19  43 SW3       30.07F
$$

...SOME WEATHER OBSERVATIONS FROM AROUND THE REGION...

CITY           SKY/WX    TMP DP  RH WIND       PRES   REMARKS
DENVER         CLEAR     38  25  59 SW10      30.11S WCI  31
LARAMIE        CLEAR     36  13  38 W9        30.19R WCI  29
CHEYENNE       CLEAR     36  18  48 W9        30.14R WCI  29
SCOTTSBLUFF    CLEAR     31  23  72 W6        30.05R WCI  25
RAPID CITY     CLEAR     42  23  46 NW14      29.98S
PIERRE         MOCLDY    41  29  62 W3        29.92F
WINNER         FAIR      44  19  36 NW8       29.97S
SIOUX FALLS    MOCLDY    31  21  66 SW3       30.01S
OMAHA          MOCLDY    39  27  62 SE9       30.10F WCI  33
GRAND ISLAND   MOCLDY    44  20  38 SW9       30.09F
KANSAS CITY    CLEAR     36  30  79 SW8       30.16S WCI  30
WICHITA        CLEAR     39  31  72 CALM      30.19S
HAYS           CLEAR     37  18  44 SW6       30.16R WCI  33
LIBERAL        CLEAR     39  27  60 S9        30.20S WCI  33
GOODLAND       CLEAR     43  23  45 S17       30.11F
$$



USA.gov is the U.S. government's official web portal to all federal, state and local government web resources and services.